Location: RyutenAO
(34.8939°N, 134.0022°E)
Time: 10:50:49
(UTC+09:00)

Oscar 19 - Pass Details

Date: 08 April 2023
Orbit: 773 x 788 km, 98.8° (Epoch: 29 May)

Event Time Altitude Azimuth Distance (km) Brightness Sun altitude
Rises 04:46:15 0° 3° (N) 3,272 14.2 -12.0°
Reaches altitude 10° 04:48:41 10° 356° (N) 2,343 13.3 -11.6°
Maximum altitude 04:53:27 39° 289° (WNW) 1,168 11.2 -10.6°
Drops below altitude 10° 04:58:12 10° 222° (SW) 2,338 12.6 -9.7°
Enters shadow 04:59:19 - 218° (SW) 2,752 13.0 -9.5°
